St. Charles, IL

9:58 PM CDT on May 26, 2017 (GMT -0500)
Saint Charles County Smartt

Weather History for KSET - January, 2013

Change the Weather History Date:

Wednesday, January 9, 2013

  Actual Average (KSTL) Record (KSTL)
Temperature  
Mean Temperature 46 °F -  
Max Temperature 55 °F 34 °F 65 °F (1876)
Min Temperature 35 °F 18 °F -16 °F (1875)
Degree Days  
Heating Degree Days 20    
Moisture  
Dew Point 33 °F    
Average Humidity 67    
Maximum Humidity 86    
Minimum Humidity 39    
Precipitation  
Precipitation 0.00 in - - ()
Sea Level Pressure  
Sea Level Pressure 30.37 in    
Wind  
Wind Speed 4 mph (NW)    
Max Wind Speed 9 mph    
Max Gust Speed -    
Visibility 10 miles    
Events Rain    
Averages and records for this station are not official NWS values.
T = Trace of Precipitation, MM = Missing Value Source: NWS Daily Summary

Daily Weather History Graph

Daily Weather History Graph

Search for Another Location

Airport or City:

Trip Planner

Search our weather history database for the weather conditions in past years. The results will help you decide how hot, cold, wet, or windy it might be!

Date:

Astronomy

Jan. 09, 2013 Rise Set
Actual Time 7:20 AM CST 4:57 PM CST
Civil Twilight 6:50 AM CST 5:27 PM CST
Nautical Twilight 6:17 AM CST 6:00 PM CST
Astronomical Twilight 5:45 AM CST 6:32 PM CST
Moon 4:59 AM CST (1/9) 2:59 PM CST (1/9)
Length of Visible Light 10h 36m
Length of Day
9h 37m
Waning Crescent, 6% of the Moon is Illuminated
Jan 9
Waning Crescent
Jan 11
New
Jan 18
First Quarter
Jan 26
Full
Feb 3
Last Quarter

Hourly Weather History & Observations

Time (CST) Temp. Windchill Dew Point Humidity Pressure Visibility Wind Dir Wind Speed Gust Speed Precip Events Conditions
12:54 AM 39.9 °F - 33.1 °F 77% 30.19 in 10.0 mi Calm Calm - 0.00 in Rain Light Rain
1:54 AM 41.0 °F - 35.1 °F 79% 30.21 in 10.0 mi Calm Calm - 0.00 in Rain Light Rain
2:54 AM 42.1 °F 39.2 °F 36.0 °F 79% 30.22 in 10.0 mi SW 4.6 mph - 0.00 in   Overcast
3:54 AM 37.0 °F - 33.1 °F 86% 30.25 in 10.0 mi Calm Calm - N/A   Clear
4:54 AM 36.0 °F 29.6 °F 32.0 °F 86% 30.27 in 10.0 mi West 8.1 mph - N/A   Clear
5:54 AM 42.1 °F 37.1 °F 37.9 °F 85% 30.28 in 10.0 mi West 8.1 mph - N/A   Clear
6:54 AM 39.9 °F 37.8 °F 34.0 °F 79% 30.32 in 10.0 mi NW 3.5 mph - N/A   Clear
7:54 AM 37.9 °F - 33.1 °F 83% 30.35 in 10.0 mi Calm Calm - N/A   Clear
8:54 AM 43.0 °F - 37.0 °F 80% 30.38 in 10.0 mi Calm Calm - N/A   Clear
9:54 AM 46.0 °F 41.9 °F 36.0 °F 68% 30.40 in 10.0 mi West 8.1 mph - N/A   Clear
10:54 AM 48.9 °F - 36.0 °F 61% 30.40 in 10.0 mi WSW 3.5 mph - N/A   Clear
11:54 AM 53.1 °F - 34.0 °F 48% 30.40 in 10.0 mi West 5.8 mph - N/A   Clear
12:54 PM 54.0 °F - 33.1 °F 45% 30.38 in 10.0 mi West 6.9 mph - N/A   Clear
1:54 PM 55.9 °F - 33.1 °F 42% 30.40 in 10.0 mi West 9.2 mph - N/A   Clear
2:54 PM 55.9 °F - 30.9 °F 39% 30.40 in 10.0 mi West 9.2 mph - N/A   Clear
3:54 PM 54.0 °F - 32.0 °F 43% 30.41 in 10.0 mi WNW 3.5 mph - N/A   Clear
4:54 PM 48.9 °F - 30.9 °F 50% 30.43 in 10.0 mi NE 4.6 mph - N/A   Clear
5:54 PM 46.0 °F 42.5 °F 30.9 °F 56% 30.45 in 10.0 mi NE 6.9 mph - N/A   Clear
6:54 PM 41.0 °F 35.8 °F 30.0 °F 65% 30.47 in 10.0 mi NE 8.1 mph - N/A   Clear
7:54 PM 43.0 °F 37.7 °F 30.0 °F 60% 30.47 in 10.0 mi NE 9.2 mph - N/A   Clear
8:54 PM 43.0 °F 38.2 °F 30.0 °F 60% 30.47 in 10.0 mi NE 8.1 mph - N/A   Clear
9:54 PM 36.0 °F 32.1 °F 30.0 °F 79% 30.48 in 10.0 mi ESE 4.6 mph - N/A   Clear
10:54 PM 36.0 °F 30.3 °F 30.0 °F 79% 30.48 in 10.0 mi East 6.9 mph - N/A   Clear
11:54 PM 35.1 °F 31.0 °F 30.0 °F 82% 30.46 in 10.0 mi East 4.6 mph - N/A   Clear